QPF
0.00 0.00 0.00 0.00 0.00 0.00 0.00 0.00 0.00 0.00 0.00 0.00 0.00 0.00 0.00 0.00 0.00 0.00 0.00 0.00 0.00 0.00 0.00 0.00 0.00 0.00 0.00 0.00 0.00 0.00 0.00 0.00 0.00 0.00 0.00 0.00 0.00 0.00 0.00 0.00 0.00 0.00 0.00 0.00 0.00
0.00 0.00 0.00 0.00 0.00 0.00 0.00 0.00 0.00 0.00 0.00 0.00 0.00 0.00 0.00 0.00 0.00 0.00 0.00 0.00 0.00 0.00 0.00 0.00 0.00 0.00 0.00 0.00 0.00 0.00 0.00 0.00 0.00 0.00 0.00 0.00 0.00 0.00 0.00 0.00 0.00 0.00 0.00 0.00 0.00
0.00 0.00 0.00 0.00 0.00 0.00 0.00 0.00 0.00 0.00 0.00 0.00 0.00 0.00 0.00 0.00 0.00 0.00 0.00 0.00 0.00 0.00 0.00 0.00 0.00 0.00 0.00 0.00 0.00 0.00 0.00 0.00 0.00 0.00 0.00 0.00 0.00 0.00 0.00 0.00 0.00 0.00 0.00 0.00 0.00
0.00 0.00 0.00 0.00 0.00 0.00 0.00 0.00 0.00 0.00 0.00 0.00 0.00 0.00 0.00 0.00 0.00 0.00 0.00 0.00 0.00 0.00 0.00 0.00 0.00 0.00 0.00 0.00 0.00 0.00 0.00 0.00 0.00 0.00 0.00 0.00 0.00 0.00 0.00 0.00 0.00 0.00 0.00 0.00 0.00
0.00 0.00 0.00 0.00 0.00 0.00 0.00 0.00 0.00 0.00 0.00 0.00 0.00 0.00 0.00 0.00 0.00 0.00 0.00 0.00 0.00 0.00 0.00 0.00 0.00 0.00 0.00 0.00 0.00 0.00 0.00 0.00 0.00 0.00 0.00 0.00 0.00 0.00 0.00 0.00 0.00 0.00 0.00 0.00 0.00
0.00 0.00 0.00 0.00 0.00 0.00 0.00 0.00 0.00 0.00 0.00 0.00 0.00 0.00 0.00 0.00 0.00 0.00 0.00 0.00 0.00 0.00 0.00 0.00 0.00 0.00 0.00 0.00 0.00 0.00 0.00 0.00 0.00 0.00 0.00 0.00 0.00 0.00 0.00 0.00 0.00 0.00 0.00 0.00 0.00
0.00 0.00 0.00 0.00 0.00 0.00 0.00 0.00 0.00 0.00 0.00 0.00 0.00 0.00 0.00 0.00 0.00 0.00 0.00 0.00 0.00 0.00 0.00 0.00 0.00 0.00 0.00 0.00 0.00 0.00 0.00 0.00 0.00 0.00 0.00 0.00 0.00 0.00 0.00 0.00 0.00 0.00 0.00 0.00 0.00
0.00 0.00 0.00 0.00 0.00 0.00 0.00 0.00 0.00 0.00 0.00 0.00 0.00 0.00 0.00 0.00 0.00 0.00 0.00 0.00 0.00 0.00 0.00 0.00 0.00 0.00 0.00 0.00 0.00 0.00 0.00 0.00 0.00 0.00 0.00 0.00 0.00 0.00 0.00 0.00 0.00 0.00 0.00 0.00 0.00
0.00 0.00 0.00 0.00 0.00 0.00 0.00 0.00 0.00 0.00 0.00 0.00 0.00 0.00 0.00 0.00 0.00 0.00 0.00 0.00 0.00 0.00 0.00 0.00 0.00 0.00 0.00 0.00 0.00 0.00 0.00 0.00 0.00 0.00 0.00 0.00 0.00 0.00 0.00 0.00 0.00 0.00 0.00 0.00 0.00
0.00 0.00 0.00 0.00 0.00 0.00 0.00 0.00 0.00 0.00 0.00 0.00 0.00 0.00 0.00 0.00 0.00 0.00 0.00 0.00 0.00 0.00 0.00 0.00 0.00 0.00 0.00 0.00 0.00 0.00 0.00 0.00 0.00 0.00 0.00 0.00 0.00 0.00 0.00 0.00 0.00 0.00 0.00 0.00 0.00
0.00 0.00 0.00 0.00 0.00 0.00 0.00 0.00 0.00 0.00 0.00 0.00 0.00 0.00 0.00 0.00 0.00 0.00 0.00 0.00 0.00 0.00 0.00 0.00 0.00 0.00 0.00 0.00 0.00 0.00 0.00 0.00 0.00 0.00 0.00 0.00 0.00 0.00 0.00 0.00 0.00 0.00 0.00 0.00 0.00
0.00 0.00 0.00 0.00 0.00 0.00 0.00 0.00 0.00 0.00 0.00 0.00 0.00 0.00 0.00 0.00 0.00 0.00 0.00 0.00 0.00 0.00 0.00 0.00 0.00 0.00 0.00 0.00 0.00 0.00 0.00 0.00 0.00 0.00 0.00 0.00 0.00 0.00 0.00 0.00 0.00 0.00 0.00 0.00 0.00
0.00 0.00 0.00 0.00 0.00 0.00 0.00 0.00 0.00 0.00 0.00 0.00 0.00 0.00 0.00 0.00 0.00 0.00 0.00 0.00 0.00 0.00 0.00 0.00 0.00 0.00 0.00 0.00 0.00 0.00 0.00 0.00 0.00 0.00 0.00 0.00 0.00 0.00 0.00 0.00 0.00 0.00 0.00 0.00 0.00
0.00 0.00 0.00 0.00 0.00 0.00 0.00 0.00 0.00 0.00 0.00 0.00 0.00 0.00 0.00 0.00 0.00 0.00 0.00 0.00 0.00 0.00 0.00 0.00 0.00 0.00 0.00 0.00 0.00 0.00 0.00 0.00 0.00 0.00 0.00 0.00 0.00 0.00 0.00 0.00 0.00 0.00 0.00 0.00 0.00
0.00 0.00 0.00 0.00 0.00 0.00 0.00 0.00 0.00 0.00 0.00 0.00 0.00 0.00 0.00 0.00 0.00 0.00 0.00 0.00 0.00 0.00 0.00 0.00 0.00 0.00 0.00 0.00 0.00 0.00 0.00 0.00 0.00 0.00 0.00 0.00 0.00 0.00 0.00 0.00 0.00 0.00 0.00 0.00 0.00
0.00 0.00 0.00 0.00 0.00 0.00 0.00 0.00 0.00 0.00 0.00 0.00 0.00 0.00 0.00 0.00 0.00 0.00 0.00 0.00 0.00 0.00 0.00 0.00 0.00 0.00 0.00 0.00 0.00 0.00 0.00 0.00 0.00 0.00 0.00 0.00 0.00 0.00 0.00 0.00 0.00 0.00 0.00 0.00 0.00
0.00 0.00 0.00 0.00 0.00 0.00 0.00 0.00 0.00 0.00 0.00 0.00 0.00 0.00 0.00 0.00 0.00 0.00 0.00 0.00 0.00 0.00 0.00 0.00 0.00 0.00 0.00 0.00 0.00 0.00 0.00 0.00 0.00 0.00 0.00 0.00 0.00 0.00 0.00 0.00 0.00 0.00 0.00 0.00 0.00
0.00 0.00 0.00 0.00 0.00 0.00 0.00 0.00 0.00 0.00 0.00 0.00 0.00 0.00 0.00 0.00 0.00 0.00 0.00 0.00 0.00 0.00 0.00 0.00 0.00 0.00 0.00 0.00 0.00 0.00 0.00 0.00 0.00 0.00 0.00 0.00 0.00 0.00 0.00 0.00 0.00 0.00 0.00 0.00 0.00
0.00 0.00 0.00 0.00 0.00 0.00 0.00 0.00 0.00 0.00 0.00 0.00 0.00 0.00 0.00 0.00 0.00 0.00 0.00 0.00 0.00 0.00 0.00 0.00 0.00 0.00 0.00 0.00 0.00 0.00 0.00 0.00 0.00 0.00 0.00 0.00 0.00 0.00 0.00 0.00 0.00 0.00 0.00 0.00 0.00
0.00 0.00 0.00 0.00 0.00 0.00 0.00 0.00 0.00 0.00 0.00 0.00 0.00 0.00 0.00 0.00 0.00 0.00 0.00 0.00 0.00 0.00 0.00 0.00 0.00 0.00 0.00 0.00 0.00 0.00 0.00 0.00 0.00 0.00 0.00 0.00 0.00 0.00 0.00 0.00 0.00 0.00 0.00 0.00 0.00
0.00 0.00 0.00 0.00 0.00 0.00 0.00 0.00 0.00 0.00 0.00 0.00 0.00 0.00 0.00 0.00 0.00 0.00 0.00 0.00 0.00 0.00 0.00 0.00 0.00 0.00 0.00 0.00 0.00 0.00 0.00 0.00 0.00 0.00 0.00 0.00 0.00 0.00 0.00 0.00 0.00 0.00 0.00 0.00 0.00
0.00 0.00 0.00 0.00 0.00 0.00 0.00 0.00 0.00 0.00 0.00 0.00 0.00 0.00 0.00 0.00 0.00 0.00 0.00 0.00 0.00 0.00 0.00 0.00 0.00 0.00 0.00 0.00 0.00 0.00 0.00 0.00 0.00 0.00 0.00 0.00 0.00 0.00 0.00 0.00 0.00 0.00 0.00 0.00 0.00
0.00 0.00 0.00 0.00 0.00 0.00 0.00 0.00 0.00 0.00 0.00 0.00 0.00 0.00 0.00 0.00 0.00 0.00 0.00 0.00 0.00 0.00 0.00 0.00 0.00 0.00 0.00 0.00 0.00 0.00 0.00 0.00 0.00 0.00 0.00 0.00 0.00 0.00 0.00 0.00 0.00 0.00 0.00 0.00 0.00
0.00 0.00 0.00 0.00 0.00 0.00 0.00 0.00 0.00 0.00 0.00 0.00 0.00 0.00 0.00 0.00 0.00 0.00 0.00 0.00 0.00 0.00 0.00 0.00 0.00 0.00 0.00 0.00 0.00 0.00 0.00 0.00 0.00 0.00 0.00 0.00 0.00 0.00 0.00 0.00 0.00 0.00 0.00 0.00 0.00
0.00 0.00 0.00 0.00 0.00 0.00 0.00 0.00 0.00 0.00 0.00 0.00 0.00 0.00 0.00 0.00 0.00 0.00 0.00 0.00 0.00 0.00 0.00 0.00 0.00 0.00 0.00 0.00 0.00 0.00 0.00 0.00 0.00 0.00 0.00 0.00 0.00 0.00 0.00 0.00 0.00 0.00 0.00 0.00 0.00
0.00 0.00 0.00 0.00 0.00 0.00 0.00 0.00 0.00 0.00 0.00 0.00 0.00 0.00 0.00 0.00 0.00 0.00 0.00 0.00 0.00 0.00 0.00 0.00 0.00 0.00 0.00 0.00 0.00 0.00 0.00 0.00 0.00 0.00 0.00 0.00 0.00 0.00 0.00 0.00 0.00 0.00 0.00 0.00 0.00
0.00 0.00 0.00 0.00 0.00 0.00 0.00 0.00 0.00 0.00 0.00 0.00 0.00 0.00 0.00 0.00 0.00 0.00 0.00 0.00 0.00 0.00 0.00 0.00 0.00 0.00 0.00 0.00 0.00 0.00 0.00 0.00 0.00 0.00 0.00 0.00 0.00 0.00 0.00 0.00 0.00 0.00 0.00 0.00 0.00
MSLP
1017.22 1017.02 1016.79 1016.50 1016.27 1016.17 1016.02 1015.87 1015.75 1015.65 1015.52 1015.28 1015.15 1015.04 1014.90 1014.62 1013.95 1013.68 1013.98 1014.26 1013.72 1012.91 1012.78 1012.27 1011.72 1011.31 1011.34 1011.66 1011.89 1012.56 1015.21 1017.69 1018.95 1019.85 1022.22 1022.23 1022.32 1023.23 1024.28 1024.17 1024.64 1025.19 1026.11 1026.06 1025.44
1017.18 1016.95 1016.69 1016.45 1016.29 1016.14 1016.01 1015.90 1015.77 1015.64 1015.46 1015.19 1014.90 1014.90 1014.88 1014.61 1014.29 1013.90 1013.93 1013.48 1012.97 1012.73 1012.62 1012.16 1011.66 1011.67 1011.99 1012.36 1013.05 1014.37 1017.47 1019.17 1019.54 1020.58 1022.63 1023.09 1022.98 1023.70 1025.12 1025.62 1025.95 1026.07 1026.13 1025.91 1025.78
1017.15 1016.91 1016.64 1016.46 1016.31 1016.14 1016.06 1015.92 1015.78 1015.61 1015.40 1015.16 1014.93 1014.77 1014.53 1014.40 1014.35 1014.35 1013.52 1012.98 1012.36 1012.05 1012.30 1011.97 1011.70 1012.16 1012.89 1013.51 1014.76 1016.64 1018.73 1020.09 1021.13 1021.56 1022.23 1023.45 1024.01 1024.66 1025.35 1026.30 1026.53 1026.66 1026.70 1026.47 1026.27
1017.16 1016.91 1016.73 1016.55 1016.31 1016.14 1016.08 1015.98 1015.78 1015.53 1015.26 1015.08 1014.86 1014.63 1014.31 1014.14 1015.08 1014.38 1013.67 1012.96 1012.20 1011.56 1011.76 1011.70 1011.84 1012.56 1014.10 1015.20 1015.93 1017.97 1019.59 1020.11 1021.63 1021.90 1022.30 1023.61 1024.91 1025.81 1025.97 1026.57 1026.53 1026.71 1026.70 1026.72 1026.65
1017.22 1016.94 1016.78 1016.57 1016.31 1016.12 1016.02 1015.90 1015.58 1015.26 1015.02 1014.87 1014.68 1014.49 1014.17 1014.93 1015.39 1014.48 1013.85 1013.12 1012.31 1011.93 1012.20 1012.19 1012.51 1013.14 1014.65 1016.11 1016.99 1018.57 1020.23 1021.07 1022.05 1022.61 1023.49 1024.33 1025.33 1025.84 1026.61 1026.61 1026.64 1026.84 1026.93 1026.96 1026.73
1017.32 1017.06 1016.82 1016.57 1016.24 1016.03 1015.94 1015.76 1015.42 1015.10 1014.88 1014.76 1014.51 1014.50 1014.45 1015.48 1015.12 1014.60 1014.15 1013.55 1013.15 1012.87 1012.84 1012.84 1013.44 1013.48 1015.00 1016.20 1017.04 1018.55 1020.11 1021.50 1022.22 1022.95 1024.27 1024.55 1025.96 1026.08 1027.03 1026.87 1027.16 1027.27 1027.44 1027.22 1027.02
1017.43 1017.20 1016.92 1016.64 1016.24 1015.99 1015.85 1015.61 1015.30 1015.07 1014.69 1014.59 1014.49 1014.25 1014.99 1015.67 1015.18 1014.70 1014.23 1014.05 1013.70 1013.42 1013.44 1013.37 1013.54 1013.81 1015.28 1016.82 1017.68 1018.94 1020.53 1021.66 1022.56 1023.04 1024.38 1024.10 1026.56 1027.22 1027.45 1027.42 1027.93 1027.98 1027.72 1027.52 1027.13
1017.57 1017.30 1017.06 1016.75 1016.34 1016.01 1015.83 1015.58 1015.28 1015.00 1014.71 1014.42 1014.52 1014.43 1015.37 1015.05 1014.91 1014.70 1014.36 1014.13 1013.67 1013.45 1013.52 1013.76 1013.65 1014.78 1015.88 1016.75 1018.20 1019.16 1020.15 1021.43 1022.25 1022.73 1023.69 1024.43 1027.22 1027.78 1027.84 1028.11 1028.36 1028.29 1028.19 1027.84 1027.25
1017.65 1017.36 1017.14 1016.82 1016.45 1016.09 1015.82 1015.53 1015.17 1014.78 1014.54 1014.41 1014.34 1014.72 1015.77 1015.13 1015.19 1015.11 1015.14 1014.95 1014.38 1013.73 1013.89 1014.04 1014.86 1016.87 1017.57 1018.26 1019.13 1019.94 1020.52 1021.16 1021.97 1022.33 1023.57 1025.02 1027.22 1028.05 1028.14 1028.27 1028.56 1028.80 1028.58 1028.23 1027.60
1017.73 1017.42 1017.16 1016.80 1016.39 1016.10 1015.59 1015.32 1015.01 1014.73 1014.33 1014.35 1014.84 1015.59 1016.51 1016.79 1016.17 1015.99 1015.25 1015.00 1014.87 1014.65 1015.14 1015.87 1017.61 1019.08 1019.72 1019.94 1021.36 1021.41 1021.29 1021.64 1022.21 1023.34 1024.27 1025.75 1027.50 1028.04 1028.30 1028.30 1028.94 1029.20 1029.10 1028.41 1027.65
1017.77 1017.46 1017.16 1016.83 1016.35 1016.15 1015.74 1015.29 1015.87 1016.06 1016.15 1016.89 1017.17 1017.34 1017.34 1016.79 1016.27 1016.35 1015.82 1015.34 1015.43 1016.10 1017.49 1018.57 1019.94 1021.34 1021.76 1021.92 1021.88 1021.54 1021.72 1022.06 1022.32 1023.02 1024.54 1026.22 1027.49 1028.19 1028.46 1028.79 1029.32 1029.36 1029.05 1028.79 1027.92
1017.77 1017.43 1017.11 1016.85 1016.50 1016.04 1016.08 1016.54 1017.02 1017.18 1017.63 1017.44 1017.55 1017.55 1017.44 1017.25 1017.24 1016.95 1016.44 1016.71 1017.89 1018.65 1018.97 1020.37 1021.92 1022.17 1021.93 1022.05 1021.95 1021.61 1021.96 1022.74 1022.48 1022.93 1024.52 1026.71 1027.94 1028.37 1028.61 1029.31 1029.50 1029.61 1029.48 1028.83 1027.84
1017.76 1017.43 1017.11 1016.82 1016.53 1016.17 1016.60 1017.05 1016.87 1016.86 1017.45 1017.81 1017.72 1017.76 1017.74 1017.87 1018.72 1018.65 1018.19 1018.21 1019.12 1020.14 1020.95 1022.01 1023.53 1022.62 1022.53 1022.92 1022.61 1022.31 1022.70 1023.23 1023.83 1023.70 1024.86 1026.83 1028.43 1029.19 1029.20 1029.64 1029.65 1029.71 1029.39 1028.55 1027.66
1017.71 1017.45 1017.20 1016.85 1016.93 1016.45 1017.05 1017.05 1016.96 1016.98 1017.70 1018.53 1017.94 1017.97 1017.93 1018.12 1018.98 1018.99 1018.69 1019.08 1019.77 1021.17 1021.79 1023.29 1024.07 1023.49 1023.40 1023.49 1023.71 1023.17 1022.50 1023.14 1023.46 1024.30 1025.34 1026.04 1028.92 1029.85 1030.13 1030.19 1030.19 1029.89 1029.18 1028.50 1027.61
1017.73 1017.45 1017.23 1017.29 1017.12 1016.96 1017.42 1016.99 1016.95 1017.25 1018.37 1018.95 1018.32 1017.89 1018.34 1018.96 1019.78 1019.60 1019.61 1020.04 1021.29 1021.98 1022.18 1024.59 1024.68 1024.35 1024.28 1024.38 1024.16 1023.64 1022.81 1022.68 1022.95 1024.16 1025.71 1026.68 1028.51 1030.76 1030.90 1030.81 1030.42 1030.07 1029.54 1028.56 1027.75
1017.86 1017.60 1017.30 1016.84 1017.22 1017.37 1017.14 1017.04 1017.36 1018.01 1018.97 1019.16 1018.73 1018.72 1019.07 1019.76 1020.19 1020.61 1021.08 1021.03 1022.22 1023.02 1023.90 1024.87 1024.96 1025.32 1025.43 1024.81 1024.69 1024.38 1023.16 1023.04 1023.78 1025.13 1027.18 1027.90 1029.00 1031.87 1031.76 1031.89 1031.20 1030.49 1029.65 1028.83 1027.72
1017.93 1017.69 1017.29 1017.11 1017.44 1017.27 1017.31 1017.72 1018.58 1019.19 1019.61 1019.89 1019.61 1019.49 1020.01 1020.76 1021.27 1022.08 1023.28 1024.02 1025.35 1025.35 1025.52 1025.68 1025.95 1025.95 1026.02 1025.81 1025.45 1025.67 1025.12 1026.01 1026.80 1027.62 1028.56 1028.75 1029.92 1032.32 1032.49 1032.07 1031.69 1030.94 1029.89 1029.03 1028.04
1017.88 1017.84 1017.27 1017.19 1017.28 1017.30 1017.61 1018.56 1019.47 1020.14 1020.23 1020.13 1020.11 1020.15 1020.79 1021.44 1022.28 1023.48 1024.58 1026.25 1026.77 1026.93 1026.92 1027.06 1026.64 1027.16 1027.27 1027.41 1027.58 1027.65 1028.27 1029.35 1030.29 1030.88 1030.45 1029.94 1031.72 1032.94 1032.65 1032.31 1031.60 1031.02 1030.04 1029.05 1028.19
1017.89 1017.60 1017.63 1017.43 1017.17 1017.45 1018.17 1020.08 1021.06 1021.08 1020.89 1020.70 1020.61 1020.95 1021.53 1021.93 1022.69 1024.35 1026.36 1027.74 1028.15 1027.97 1028.19 1028.07 1028.00 1027.98 1027.88 1027.90 1028.21 1028.84 1029.61 1030.46 1031.72 1032.31 1032.83 1032.35 1032.55 1032.59 1032.45 1032.30 1031.74 1031.05 1029.83 1028.82 1028.16
1018.41 1017.99 1017.67 1017.06 1017.18 1017.82 1019.47 1021.40 1022.00 1021.80 1021.57 1021.29 1021.35 1021.64 1022.40 1022.96 1023.63 1025.05 1027.22 1028.58 1028.84 1028.67 1028.69 1028.70 1028.59 1028.28 1028.43 1028.63 1029.19 1029.87 1030.66 1031.73 1033.34 1034.98 1035.36 1034.07 1034.34 1034.41 1033.66 1032.73 1032.04 1031.01 1030.01 1029.29 1028.47
1018.57 1018.57 1017.48 1016.90 1017.41 1018.59 1021.01 1022.18 1022.53 1022.39 1022.09 1021.83 1021.85 1022.29 1023.07 1023.79 1024.79 1026.51 1028.24 1029.24 1029.43 1029.18 1028.87 1028.97 1029.11 1029.46 1029.52 1030.98 1031.52 1031.48 1032.51 1033.67 1035.01 1036.69 1037.75 1037.19 1035.60 1034.89 1034.49 1033.45 1032.61 1031.73 1030.93 1030.05 1029.15
1018.82 1018.72 1017.33 1017.06 1018.63 1020.49 1022.17 1022.46 1022.53 1022.79 1022.37 1022.24 1022.41 1022.90 1023.70 1024.58 1025.95 1027.31 1028.65 1029.53 1029.83 1029.81 1029.73 1029.70 1029.88 1030.77 1031.62 1031.86 1032.33 1032.70 1034.09 1035.38 1036.99 1038.44 1038.95 1038.78 1036.20 1035.05 1034.13 1033.91 1033.17 1032.15 1031.32 1030.47 1029.71
1019.43 1018.84 1017.45 1017.51 1020.07 1022.28 1022.88 1023.30 1023.41 1023.21 1023.20 1022.89 1023.35 1023.65 1024.16 1025.42 1026.77 1027.96 1029.14 1029.87 1030.02 1030.17 1030.44 1030.31 1030.51 1031.58 1032.24 1032.69 1032.61 1033.46 1034.68 1035.85 1037.14 1038.69 1039.59 1039.90 1036.49 1034.66 1034.77 1033.96 1033.15 1032.42 1031.56 1030.84 1029.71
1019.60 1020.12 1019.50 1019.52 1020.52 1021.79 1022.91 1023.57 1023.95 1023.81 1023.67 1023.63 1024.02 1024.23 1024.94 1026.15 1026.94 1028.39 1029.44 1030.03 1030.24 1030.41 1030.49 1030.61 1031.11 1031.93 1033.01 1032.97 1033.53 1034.00 1035.01 1035.99 1037.14 1039.09 1039.17 1038.84 1037.12 1035.95 1035.21 1034.28 1033.47 1032.81 1032.04 1031.05 1030.11
1020.17 1021.16 1021.16 1021.89 1021.96 1022.07 1022.49 1023.35 1023.98 1024.17 1024.13 1024.12 1024.71 1025.04 1025.57 1027.12 1027.88 1028.90 1029.71 1030.35 1030.52 1030.49 1030.66 1031.06 1031.94 1032.20 1032.73 1033.05 1033.41 1033.87 1034.63 1035.75 1036.62 1037.63 1038.55 1037.87 1037.27 1036.45 1035.59 1034.75 1033.85 1032.94 1032.21 1031.11 1030.17
1020.53 1021.17 1022.03 1022.66 1022.47 1022.65 1023.23 1023.65 1024.04 1024.73 1024.89 1024.99 1025.49 1026.20 1026.47 1027.68 1028.53 1029.25 1029.65 1030.35 1030.76 1030.88 1031.27 1031.70 1032.55 1032.83 1033.33 1033.46 1033.59 1033.82 1034.23 1034.91 1035.71 1036.63 1037.31 1037.37 1036.98 1036.53 1035.66 1034.89 1033.82 1033.34 1032.48 1031.39 1030.56
1020.31 1020.53 1021.38 1023.69 1023.22 1023.45 1023.73 1023.83 1024.48 1024.80 1025.82 1025.99 1026.32 1027.15 1028.15 1029.09 1029.44 1029.87 1030.11 1030.67 1031.10 1031.46 1032.11 1032.67 1033.44 1034.18 1034.43 1034.00 1033.88 1034.26 1034.32 1034.83 1035.60 1036.20 1036.81 1037.19 1037.22 1036.44 1035.74 1035.10 1034.48 1033.72 1032.99 1031.93 1030.92
Thickness
5756 5757 5757 5758 5759 5759 5760 5761 5761 5762 5763 5765 5766 5768 5770 5772 5777 5777 5764 5770 5776 5784 5784 5786 5788 5790 5789 5779 5781 5776 5716 5693 5696 5690 5670 5678 5676 5668 5658 5651 5644 5635 5619 5617 5618
5757 5758 5758 5759 5759 5759 5760 5761 5761 5762 5763 5766 5769 5770 5770 5773 5773 5767 5777 5780 5784 5785 5783 5781 5779 5783 5770 5768 5762 5738 5697 5695 5703 5689 5661 5662 5667 5660 5641 5631 5624 5619 5613 5610 5605
5758 5759 5759 5759 5759 5760 5760 5761 5761 5763 5765 5767 5770 5772 5774 5776 5766 5761 5781 5785 5789 5791 5788 5787 5786 5777 5757 5756 5743 5723 5694 5693 5688 5681 5674 5657 5649 5645 5634 5618 5613 5607 5603 5598 5590
5759 5760 5759 5759 5760 5761 5761 5761 5763 5765 5767 5769 5772 5775 5778 5777 5736 5769 5780 5785 5792 5796 5791 5786 5780 5762 5738 5730 5736 5705 5697 5694 5678 5681 5675 5656 5644 5629 5623 5611 5610 5602 5595 5587 5580
5760 5760 5760 5761 5762 5763 5763 5763 5765 5768 5770 5772 5774 5777 5777 5754 5750 5774 5779 5784 5790 5790 5779 5775 5763 5757 5736 5723 5721 5701 5688 5683 5672 5665 5656 5648 5632 5625 5613 5610 5604 5594 5583 5574 5566
5760 5760 5761 5762 5764 5765 5765 5766 5767 5770 5772 5774 5776 5777 5770 5738 5768 5772 5776 5780 5780 5778 5772 5770 5761 5760 5739 5729 5720 5707 5690 5674 5669 5660 5648 5641 5626 5621 5605 5601 5588 5578 5568 5558 5548
5760 5761 5762 5763 5766 5767 5767 5767 5770 5772 5775 5776 5777 5778 5758 5747 5768 5772 5775 5773 5776 5774 5765 5769 5766 5754 5739 5715 5715 5700 5675 5665 5657 5656 5640 5641 5610 5599 5595 5585 5570 5561 5550 5544 5533
5760 5761 5763 5764 5766 5768 5769 5770 5772 5774 5776 5778 5778 5775 5746 5769 5770 5771 5774 5772 5777 5779 5773 5769 5767 5748 5734 5725 5705 5691 5676 5653 5651 5647 5636 5629 5588 5587 5582 5570 5560 5551 5533 5525 5518
5760 5762 5764 5764 5766 5769 5770 5772 5775 5777 5779 5779 5776 5766 5741 5769 5760 5767 5767 5762 5767 5774 5770 5768 5752 5722 5714 5698 5681 5671 5659 5651 5646 5653 5637 5620 5586 5579 5574 5562 5552 5531 5519 5510 5495
5760 5763 5765 5766 5769 5771 5774 5776 5778 5779 5780 5778 5772 5750 5746 5739 5754 5759 5767 5766 5760 5760 5748 5738 5714 5691 5688 5673 5643 5650 5652 5649 5640 5630 5618 5600 5580 5577 5567 5557 5536 5516 5495 5486 5482
5760 5764 5766 5768 5771 5773 5775 5775 5760 5751 5756 5737 5737 5735 5740 5751 5760 5754 5761 5761 5757 5741 5715 5713 5689 5667 5667 5664 5661 5656 5654 5642 5634 5634 5612 5592 5576 5567 5558 5544 5519 5495 5486 5472 5469
5761 5765 5768 5770 5772 5775 5775 5760 5755 5757 5732 5746 5743 5743 5748 5750 5736 5747 5757 5744 5725 5707 5715 5689 5668 5675 5676 5662 5655 5656 5644 5628 5632 5634 5605 5581 5567 5561 5552 5528 5502 5486 5466 5461 5469
5761 5765 5769 5772 5774 5775 5768 5761 5768 5767 5736 5740 5744 5740 5742 5743 5726 5728 5740 5733 5715 5698 5689 5671 5663 5677 5670 5651 5646 5648 5633 5623 5613 5619 5604 5575 5559 5548 5536 5509 5492 5474 5460 5464 5467
5760 5764 5768 5771 5768 5773 5762 5768 5768 5767 5716 5720 5732 5737 5742 5740 5723 5737 5738 5730 5716 5696 5688 5669 5663 5663 5656 5647 5636 5626 5641 5627 5619 5609 5589 5588 5542 5526 5509 5487 5473 5458 5459 5462 5464
5759 5764 5767 5768 5766 5762 5765 5770 5770 5761 5693 5727 5731 5752 5741 5726 5724 5724 5732 5720 5695 5691 5694 5657 5653 5648 5644 5640 5636 5631 5637 5631 5627 5606 5585 5581 5524 5497 5493 5480 5468 5456 5453 5458 5460
5756 5761 5766 5768 5767 5766 5769 5770 5763 5724 5688 5716 5732 5726 5724 5721 5721 5721 5711 5715 5702 5688 5674 5660 5661 5646 5637 5638 5634 5629 5632 5633 5617 5594 5563 5570 5541 5472 5468 5463 5456 5451 5450 5452 5457
5753 5758 5763 5765 5759 5767 5768 5758 5722 5697 5727 5712 5715 5724 5714 5707 5707 5700 5686 5676 5658 5666 5658 5657 5643 5643 5633 5622 5623 5612 5601 5580 5585 5561 5561 5555 5511 5487 5469 5457 5444 5440 5445 5447 5452
5751 5755 5760 5762 5764 5765 5760 5737 5708 5719 5712 5721 5719 5717 5705 5706 5703 5686 5678 5657 5656 5650 5646 5637 5640 5622 5619 5610 5597 5595 5573 5549 5565 5547 5533 5540 5492 5473 5470 5452 5442 5441 5445 5447 5448
5748 5752 5754 5758 5761 5762 5743 5701 5702 5709 5716 5714 5716 5707 5703 5705 5701 5679 5656 5647 5647 5643 5638 5625 5625 5622 5616 5608 5597 5586 5561 5565 5541 5530 5507 5505 5497 5489 5469 5451 5443 5439 5447 5450 5448
5738 5743 5747 5757 5759 5752 5722 5701 5700 5710 5710 5712 5704 5703 5692 5688 5690 5678 5656 5646 5641 5643 5637 5630 5619 5624 5614 5603 5591 5580 5572 5543 5509 5475 5493 5493 5474 5446 5447 5443 5436 5435 5442 5441 5442
5732 5729 5746 5756 5754 5732 5699 5699 5700 5707 5708 5706 5703 5700 5691 5689 5681 5663 5646 5641 5637 5636 5634 5626 5620 5615 5602 5573 5562 5554 5538 5525 5514 5486 5447 5443 5465 5463 5433 5427 5424 5428 5431 5430 5430
5724 5715 5746 5752 5721 5702 5693 5706 5709 5702 5708 5704 5701 5694 5688 5679 5667 5658 5646 5637 5633 5631 5628 5622 5610 5583 5583 5578 5566 5551 5535 5508 5460 5466 5447 5417 5442 5453 5440 5425 5422 5424 5426 5426 5425
5712 5715 5742 5742 5698 5684 5698 5695 5694 5699 5694 5700 5691 5691 5686 5673 5658 5653 5640 5635 5630 5624 5617 5613 5605 5583 5581 5568 5565 5544 5531 5518 5490 5448 5432 5397 5439 5465 5439 5428 5422 5421 5422 5420 5426
5708 5697 5712 5719 5712 5700 5694 5691 5685 5691 5691 5692 5688 5690 5682 5669 5661 5647 5639 5634 5631 5625 5621 5611 5604 5584 5557 5570 5545 5545 5523 5512 5487 5422 5421 5435 5438 5442 5436 5425 5419 5415 5415 5418 5421
5698 5691 5698 5692 5699 5703 5702 5695 5685 5683 5690 5691 5684 5683 5679 5654 5660 5645 5638 5630 5629 5627 5621 5605 5600 5598 5580 5570 5562 5552 5539 5507 5461 5480 5425 5451 5437 5433 5429 5417 5411 5412 5414 5420 5421
5688 5684 5683 5670 5696 5695 5686 5692 5686 5679 5682 5684 5673 5665 5671 5658 5655 5647 5643 5635 5630 5625 5618 5601 5592 5594 5583 5570 5561 5550 5539 5529 5512 5496 5474 5457 5441 5432 5427 5415 5413 5405 5410 5417 5418
5690 5695 5688 5665 5688 5682 5683 5688 5684 5678 5676 5670 5668 5656 5647 5643 5638 5631 5624 5616 5616 5621 5605 5598 5581 5559 5582 5572 5560 5542 5536 5520 5503 5491 5476 5451 5439 5431 5426 5420 5408 5401 5405 5412 5417